STARLINK-35199 (65858 NORAD) Tracking and Keplerian Element Data

This shows tracking and keplerian element data for the satellite.

Feedback or suggestion? Click here.




ElementValue
Catalog65858
NameSTARLINK-35199
Epoch Orbit1202
Epoch Day354.11212702
Epoch Year2025
RAAN303.6877
Inclination53.162
Eccentricity8.6E-05
Argument of Perigee93.0775
Mean Anonmoly267.0325
Mean Motion15.30203297
Decay Rate0.00016978
L11 65858U 25223E 25354.11212702 .00016978 00000+0 58397-3 0 9996
L22 65858 53.1620 303.6877 0000860 93.0775 267.0325 15.30203297 12022



Live tracking and technical data element details for STARLINK-35199 (NORAD 65858). STARLINK-35199 can be tracked NOW for your location showing map with azimuth and elevation plus other details from your city location.







IsCatalogInMostPopularTable: catalog: 65858, numindb: 5
Update: records affected: 1



GetName: 65858 STARLINK-35199

Hit Count: updated at: Mon, 09 Feb 2026 08:33:54 GMT